Showing default

ORBCOMM FM 107, 40087

Orbit data source: Space-Track

ORBCOMM FM 107, 40087 is a payload satellite owned by Orbcomm (US) in LEO that was launched on Mon, 14 Jul 2014 UTC via an FALCON 9 launch vehicle from the Air Force Eastern Test Range (AFETR). Payload-class satellites include a variety of spacecraft equipped with specific instruments for various scientific and technological missions. These include communications satellites like Starlink; space stations such as the ISS; scientific satellites like the Hubble; Earth observation satellites from companies like Planet Labs, Umbra, and HawkEye 360; GPS; miniature CubeSats for education and research; and military/defense satellites.

Loading next visibility...
Identifier
40087, 2014-040B
Orbit
LEO
Country
Flag of USUS / ORB
Related business
Manufacturer
SNC Louisville
Mission
Non-operational Commercial Communications
Bus & Motor
SN-100A, Unknown motor
Mass
172 kg wet, 158 kg dry
Launch date (UTC)
2014-07-14 (11 years ago)
Launch vehicle
FALCON 9
Launch site
Air Force Eastern Test Range (AFETR)
Object type
Payload
Rocket body
Debris
Shape & HBR
Box + 1 Pan + 1 Ant, 10.3 m
Radar Cross Section
2.222 m², Medium (>0.1 m² and < 1m²)

Expand to show TLE details & history
Last TLE update: 4 hours ago

TLE from 4 hours ago
0 ORBCOMM FM 107
1 40087U 14040B   25302.49503485  .00000992  00000-0  24784-3 0  9996
2 40087  47.0039 102.7861 0001354 198.9334 161.1502 14.58495371600749
Epoch: 2025-10-29T11:52Z
TLE epoch observation values (Epoch: 2025-10-29T11:52:51.011Z)
Latitude
0.00004°
Longitude
-113.49377°
Altitude
699.159 km
Speed
7.507 km/s
True Right ascension
06h 51m 08s
True Declination
0° 00' 00"
Sunlit
Object was in daylight at epoch
Visualization orbit readout
Latitude
Unknown
Longitude
Unknown
Altitude
Unknown
Speed
Unknown
Apparent Right ascension
Unknown
Apparent Declination
Unknown
Sunlit
N/A
Visualization observer readout
Local Sidereal Time
11:52:43
Azimuth
Unknown
Elevation
Unknown
Doppler factor
Unknown
Orbital elements
Apogee altitude
700.229 km
Perigee altitude
698.312 km
Semi-major axis
7,077.408 km
Eccentricity
0.00014
Inclination
47.0039°
RAAN
102.7861°
Arg. of periapsis
198.9334°
True anomaly
161.15521°
Mean anomaly
161.1502°
Eccentric anomaly
161.15271°
Mean motion
3.64529 °/min
Orbital period
98.76 mins
BSTAR
0.00024784
Loading maneuver chart data...
Computing Atmospheric mass density...
Loading historical data...
Loading historical data...
Loading historical data...
Loading historical data...
Loading historical data...
Loading historical data...
Loading historical data...

Documentation

Showing up to 5 results
|